EST,Max TemperatureF,Mean TemperatureF,Min TemperatureF,Max Dew PointF,MeanDew PointF,Min DewpointF,Max Humidity, Mean Humidity, Min Humidity, Max Sea Level PressureIn, Mean Sea Level PressureIn, Min Sea Level PressureIn, Max VisibilityMiles, Mean VisibilityMiles, Min VisibilityMiles, Max Wind SpeedMPH, Mean Wind SpeedMPH, Max Gust SpeedMPH,PrecipitationIn, CloudCover, Events, WindDirDegrees
2012-12-1,79,75,71,62,61,60,71,62,52,30.20,30.16,30.12,10,10,10,17,12,23,0.00,2,,64
2012-12-2,80,76,73,65,63,62,76,67,58,30.24,30.19,30.15,10,10,10,17,12,24,0.04,3,Rain,69
2012-12-3,80,76,72,64,59,50,73,58,46,30.24,30.20,30.17,10,10,10,17,11,24,0.00,2,,61
2012-12-4,78,74,70,65,57,29,78,58,20,30.24,30.19,30.16,10,10,10,15,11,22,0.03,5,Rain,73
2012-12-5,79,74,68,64,47,22,73,45,16,30.15,30.09,30.03,10,10,10,12,6,,0.01,4,,89
2012-12-6,81,75,69,67,64,61,87,71,54,30.02,29.97,29.92,10,10,10,10,4,,0.00,3,,92
2012-12-7,81,75,69,68,66,64,90,73,56,30.00,29.96,29.92,10,10,10,14,7,16,0.00,2,,128
2012-12-8,82,75,68,72,69,65,93,79,65,30.04,30.01,29.97,10,10,10,13,5,18,0.03,3,Rain,113
2012-12-9,82,76,71,73,72,69,94,86,67,30.11,30.04,30.01,10,10,10,9,2,,0.00,3,,149
2012-12-10,84,76,69,74,72,69,100,85,67,30.03,29.98,29.92,10,10,10,15,3,21,0.01,4,,159
2012-12-11,87,79,71,75,73,69,94,83,61,30.07,29.99,29.94,10,10,10,14,7,,0.47,4,Rain-Thunderstorm,174
2012-12-12,82,78,73,73,71,68,91,78,63,30.11,30.07,30.02,10,10,10,14,6,21,0.00,3,,162
2012-12-13,80,73,64,72,67,62,100,86,74,30.12,30.08,30.04,10,10,10,10,4,,0.12,5,,316
2012-12-14,78,70,63,67,63,57,94,82,48,30.14,30.09,30.06,10,10,10,15,5,18,0.22,3,Rain,355
2012-12-15,79,72,66,65,63,61,93,69,60,30.12,30.07,30.03,10,10,10,16,8,20,0.00,4,,68
2012-12-16,82,75,68,68,66,64,90,75,56,30.06,30.01,29.96,10,10,10,13,6,18,0.00,3,Rain,123
2012-12-17,82,72,63,67,65,62,100,78,49,29.99,29.97,29.91,10,10,10,12,2,18,0.00,1,,233
2012-12-18,84,75,66,70,66,63,100,77,49,30.03,29.97,29.93,10,10,10,12,4,16,0.01,2,,269
2012-12-19,82,72,61,66,61,56,93,69,43,30.11,30.06,30.02,10,10,10,9,2,,0.00,0,,76
2012-12-20,82,73,64,66,63,59,90,70,45,30.10,30.05,29.99,10,10,10,15,4,21,0.00,1,,152
2012-12-21,71,62,50,70,49,34,94,61,30,30.19,30.07,29.97,10,10,10,17,9,32,0.00,2,Rain,289
2012-12-22,64,56,48,40,28,21,71,39,24,30.27,30.22,30.18,10,10,10,12,7,22,0.00,0,,324
2012-12-23,73,62,50,52,44,31,78,53,41,30.26,30.19,30.15,10,10,10,13,4,18,0.00,1,,24
2012-12-24,77,67,57,57,54,51,84,65,47,30.14,30.08,30.01,10,10,10,14,3,16,0.00,2,,144
2012-12-25,79,69,59,64,59,56,93,70,48,30.06,30.00,29.96,10,10,10,15,4,18,0.00,2,,130
2012-12-26,82,74,63,69,66,58,94,76,54,30.00,29.93,29.86,10,10,7,22,9,32,0.16,4,Rain,228
2012-12-27,72,63,54,56,48,40,90,63,31,30.09,30.04,30.00,10,10,10,9,5,17,0.00,0,,314
2012-12-28,78,66,55,70,63,48,88,78,65,30.09,30.03,29.98,10,10,10,13,4,,0.00,4,,133
2012-12-29,84,75,63,72,69,55,93,80,63,30.12,30.00,29.95,10,10,10,16,7,23,0.00,3,,220
2012-12-30,69,60,52,53,50,43,81,64,54,30.29,30.24,30.13,10,10,10,17,9,23,0.00,3,,4
2012-12-31,75,70,66,58,55,52,63,57,48,30.31,30.25,30.20,10,10,10,18,14,23,0.00,5,,92